SAS1817 LSZH-LIMC

Flight info

Callsign SAS1817
Flight time 0h 40m
Altitude 22000
Route VEBIT1X VEBIT T53 GERSA/N0421F230 DCT SOSON DCT DEGAD DCT BASGO Z424 AKASU/N0399F190 Z424 RIXUV RIXUV3E
Aircraft A320/M-SDE3FGHIRWY/LB1

Departure

Time 2026-05-05 19:01
Airport Zürich Airport (LSZH)

Arrival

Time 2026-05-05 19:41
Airport Milan Malpensa International Airport (LIMC)
Time Latitude Longitude Altitude Speed Heading
2026-05-05 18:30 47.46072 8.55358 1402 ft 0 kts
2026-05-05 18:45 47.46067 8.55357 1397 ft 2 kts
2026-05-05 18:45 47.46050 8.55355 1397 ft 3 kts
2026-05-05 18:45 47.46032 8.55352 1401 ft 3 kts
2026-05-05 18:45 47.46015 8.55349 1400 ft 2 kts
2026-05-05 18:46 47.45998 8.55347 1397 ft 2 kts
2026-05-05 18:46 47.45986 8.55344 1401 ft 2 kts 39°
2026-05-05 18:46 47.45978 8.55328 1400 ft 0 kts 100°
2026-05-05 18:48 47.45976 8.55342 1400 ft 5 kts 97°
2026-05-05 18:48 47.45970 8.55436 1399 ft 13 kts 96°
2026-05-05 18:49 47.45959 8.55590 1401 ft 15 kts 96°
2026-05-05 18:49 47.45948 8.55745 1406 ft 15 kts 96°
2026-05-05 18:49 47.45942 8.55830 1405 ft 0 kts 96°
2026-05-05 18:50 47.45940 8.55855 1405 ft 9 kts 96°
2026-05-05 18:50 47.45928 8.56022 1411 ft 20 kts 96°
2026-05-05 18:51 47.45914 8.56228 1411 ft 20 kts 96°
2026-05-05 18:51 47.45893 8.56407 1418 ft 16 kts 116°
2026-05-05 18:51 47.45825 8.56517 1421 ft 14 kts 137°
2026-05-05 18:51 47.45793 8.56659 1419 ft 15 kts 95°
2026-05-05 18:52 47.45785 8.56772 1420 ft 0 kts 96°
2026-05-05 18:55 47.45784 8.56781 1420 ft 4 kts 96°
2026-05-05 18:55 47.45782 8.56817 1421 ft 2 kts 96°
2026-05-05 18:55 47.45779 8.56852 1422 ft 3 kts 96°
2026-05-05 18:56 47.45779 8.56860 1422 ft 0 kts 96°
2026-05-05 18:56 47.45777 8.56885 1422 ft 5 kts 96°
2026-05-05 18:56 47.45775 8.56919 1423 ft 2 kts 96°
2026-05-05 18:56 47.45774 8.56923 1423 ft 0 kts 96°
2026-05-05 18:57 47.45774 8.56925 1423 ft 2 kts 96°
2026-05-05 18:57 47.45768 8.56971 1424 ft 4 kts 103°
2026-05-05 18:57 47.45763 8.56992 1424 ft 0 kts 109°
2026-05-05 18:58 47.45762 8.56998 1425 ft 4 kts 112°
2026-05-05 18:58 47.45741 8.57027 1425 ft 0 kts 166°
2026-05-05 18:58 47.45740 8.57027 1425 ft 1 kts 166°
2026-05-05 18:58 47.45702 8.57032 1425 ft 10 kts 184°
2026-05-05 18:59 47.45666 8.56950 1424 ft 0 kts 275°
2026-05-05 19:00 47.45667 8.56948 1424 ft 2 kts 275°
2026-05-05 19:00 47.45685 8.56678 1418 ft 64 kts 275°
2026-05-05 19:01 47.45757 8.55685 1408 ft 127 kts 276°
2026-05-05 19:01 47.45867 8.54168 1627 ft 154 kts 276°
2026-05-05 19:01 47.45999 8.52611 2310 ft 154 kts 274°
2026-05-05 19:01 47.46113 8.50997 2862 ft 162 kts 274°
2026-05-05 19:02 47.46228 8.49257 3104 ft 184 kts 272°
2026-05-05 19:02 47.45958 8.47334 3321 ft 203 kts 234°
2026-05-05 19:02 47.44874 8.45820 3610 ft 228 kts 221°
2026-05-05 19:02 47.43678 8.44167 4067 ft 247 kts 230°
2026-05-05 19:03 47.42579 8.42163 4762 ft 254 kts 234°
2026-05-05 19:03 47.41540 8.40065 4964 ft 252 kts 236°
2026-05-05 19:03 47.40522 8.37946 5443 ft 254 kts 236°
2026-05-05 19:03 47.39499 8.35823 6406 ft 254 kts 236°
2026-05-05 19:04 47.38531 8.33639 7294 ft 256 kts 245°
2026-05-05 19:04 47.37776 8.31251 8165 ft 258 kts 236°
2026-05-05 19:04 47.36502 8.29396 9080 ft 260 kts 213°
2026-05-05 19:04 47.34787 8.28545 9919 ft 269 kts 188°
2026-05-05 19:05 47.32910 8.28957 10686 ft 282 kts 162°
2026-05-05 19:05 47.31203 8.30572 11131 ft 306 kts 147°
2026-05-05 19:05 47.29469 8.32600 11320 ft 330 kts 146°
2026-05-05 19:05 47.27521 8.34556 11495 ft 349 kts 153°
2026-05-05 19:06 47.25346 8.36374 11678 ft 368 kts 154°
2026-05-05 19:06 47.23074 8.38207 12191 ft 376 kts 154°
2026-05-05 19:06 47.20755 8.40036 12820 ft 380 kts 155°
2026-05-05 19:06 47.18407 8.41869 13451 ft 384 kts 155°
2026-05-05 19:07 47.16030 8.43721 14057 ft 388 kts 155°
2026-05-05 19:07 47.14417 8.44977 14447 ft 390 kts 155°
2026-05-05 19:07 47.12012 8.46856 15001 ft 393 kts 155°
2026-05-05 19:07 47.09586 8.48760 15580 ft 396 kts 155°
2026-05-05 19:08 47.07150 8.50676 16143 ft 398 kts 155°
2026-05-05 19:08 47.04642 8.52405 16677 ft 399 kts 162°
2026-05-05 19:08 47.01965 8.53459 17142 ft 399 kts 173°
2026-05-05 19:08 46.99240 8.53897 17716 ft 400 kts 177°
2026-05-05 19:09 46.96466 8.54284 18285 ft 401 kts 177°
2026-05-05 19:09 46.93677 8.54682 18731 ft 404 kts 177°
2026-05-05 19:09 46.90876 8.55086 19177 ft 407 kts 176°
2026-05-05 19:09 46.88048 8.55494 19637 ft 408 kts 176°
2026-05-05 19:10 46.85214 8.55904 20093 ft 411 kts 176°
2026-05-05 19:10 46.82371 8.56315 20552 ft 411 kts 177°
2026-05-05 19:10 46.79514 8.56727 20891 ft 413 kts 177°
2026-05-05 19:10 46.76656 8.57140 20950 ft 412 kts 178°
2026-05-05 19:11 46.73818 8.57548 20959 ft 409 kts 178°
2026-05-05 19:11 46.70978 8.57952 20975 ft 409 kts 178°
2026-05-05 19:11 46.68148 8.58353 20974 ft 408 kts 178°
2026-05-05 19:11 46.65322 8.58754 20974 ft 408 kts 178°
2026-05-05 19:12 46.62500 8.59153 20978 ft 407 kts 178°
2026-05-05 19:12 46.59682 8.59552 20989 ft 406 kts 178°
2026-05-05 19:12 46.56871 8.59951 20992 ft 407 kts 178°
2026-05-05 19:12 46.54057 8.60349 20920 ft 405 kts 178°
2026-05-05 19:13 46.51270 8.60747 20281 ft 400 kts 178°
2026-05-05 19:13 46.48506 8.61050 19536 ft 397 kts 182°
2026-05-05 19:13 46.45768 8.60814 19136 ft 394 kts 190°
2026-05-05 19:13 46.43088 8.60021 18980 ft 392 kts 198°
2026-05-05 19:14 46.40525 8.58703 18997 ft 391 kts 205°
2026-05-05 19:14 46.38110 8.56888 19004 ft 391 kts 212°
2026-05-05 19:14 46.35801 8.54814 19000 ft 391 kts 213°
2026-05-05 19:14 46.33491 8.52743 19002 ft 390 kts 213°
2026-05-05 19:15 46.31131 8.50801 19001 ft 391 kts 207°
2026-05-05 19:15 46.28597 8.49339 19003 ft 393 kts 199°
2026-05-05 19:15 46.25938 8.48408 19002 ft 395 kts 192°
2026-05-05 19:15 46.23196 8.48023 19003 ft 397 kts 184°
2026-05-05 19:16 46.20427 8.48201 19003 ft 400 kts 178°
2026-05-05 19:16 46.17658 8.48602 19005 ft 400 kts 178°
2026-05-05 19:16 46.14892 8.48996 19003 ft 399 kts 178°
2026-05-05 19:16 46.12130 8.49438 19002 ft 400 kts 174°
2026-05-05 19:17 46.09417 8.50401 19005 ft 404 kts 165°
2026-05-05 19:17 46.06775 8.51817 19004 ft 406 kts 163°
2026-05-05 19:17 46.04131 8.53248 18993 ft 405 kts 163°
2026-05-05 19:17 46.01514 8.54661 18529 ft 399 kts 163°
2026-05-05 19:18 45.98952 8.56039 17850 ft 397 kts 163°
2026-05-05 19:18 45.96342 8.57438 17165 ft 394 kts 163°
2026-05-05 19:18 45.93817 8.58793 16716 ft 388 kts 163°
2026-05-05 19:18 45.91375 8.60114 16579 ft 361 kts 162°
2026-05-05 19:19 45.89211 8.61696 16440 ft 340 kts 149°
2026-05-05 19:19 45.87401 8.63727 16255 ft 322 kts 145°
2026-05-05 19:19 45.85685 8.65719 15836 ft 316 kts 145°
2026-05-05 19:19 45.83987 8.67686 15566 ft 312 kts 145°
2026-05-05 19:20 45.82300 8.69633 15222 ft 311 kts 145°
2026-05-05 19:20 45.80621 8.71568 14892 ft 309 kts 145°
2026-05-05 19:20 45.78944 8.73499 14563 ft 308 kts 145°
2026-05-05 19:20 45.77278 8.75419 14237 ft 307 kts 145°
2026-05-05 19:21 45.75522 8.77115 13926 ft 302 kts 155°
2026-05-05 19:21 45.73675 8.78537 13583 ft 301 kts 155°
2026-05-05 19:21 45.71842 8.79947 13348 ft 296 kts 155°
2026-05-05 19:21 45.70055 8.81325 13201 ft 287 kts 155°
2026-05-05 19:22 45.68320 8.82659 13065 ft 279 kts 155°
2026-05-05 19:22 45.66622 8.83960 12850 ft 275 kts 155°
2026-05-05 19:22 45.64944 8.85243 12574 ft 273 kts 155°
2026-05-05 19:22 45.63276 8.86519 12289 ft 271 kts 155°
2026-05-05 19:23 45.61583 8.87659 11984 ft 267 kts 165°
2026-05-05 19:23 45.59789 8.88239 11684 ft 263 kts 172°
2026-05-05 19:23 45.57991 8.88723 11382 ft 262 kts 172°
2026-05-05 19:23 45.56202 8.89204 11081 ft 261 kts 172°
2026-05-05 19:24 45.54421 8.89685 10788 ft 260 kts 172°
2026-05-05 19:24 45.52649 8.90165 10494 ft 259 kts 172°
2026-05-05 19:24 45.50887 8.90644 10220 ft 257 kts 171°
2026-05-05 19:24 45.49132 8.91124 9912 ft 256 kts 171°
2026-05-05 19:25 45.47385 8.91601 9583 ft 255 kts 171°
2026-05-05 19:25 45.45645 8.92076 9243 ft 254 kts 171°
2026-05-05 19:25 45.43918 8.92546 8945 ft 251 kts 171°
2026-05-05 19:25 45.42235 8.93004 8763 ft 243 kts 171°
2026-05-05 19:26 45.40586 8.93453 8465 ft 240 kts 171°
2026-05-05 19:26 45.38945 8.93901 8126 ft 239 kts 171°
2026-05-05 19:26 45.37316 8.94345 7803 ft 237 kts 171°
2026-05-05 19:26 45.35700 8.94782 7493 ft 235 kts 171°
2026-05-05 19:27 45.34095 8.95215 7164 ft 234 kts 171°
2026-05-05 19:27 45.32502 8.95644 6815 ft 233 kts 171°
2026-05-05 19:27 45.30914 8.96073 6515 ft 231 kts 171°
2026-05-05 19:27 45.29336 8.96502 6167 ft 230 kts 171°
2026-05-05 19:28 45.27776 8.96925 6006 ft 227 kts 171°
2026-05-05 19:28 45.26214 8.97348 6004 ft 230 kts 171°
2026-05-05 19:28 45.24643 8.97773 6006 ft 230 kts 171°
2026-05-05 19:28 45.23078 8.98196 5756 ft 228 kts 171°
2026-05-05 19:29 45.21524 8.98612 5412 ft 227 kts 171°
2026-05-05 19:29 45.19973 8.99027 5071 ft 226 kts 171°
2026-05-05 19:29 45.18433 8.99439 4736 ft 225 kts 171°
2026-05-05 19:29 45.16895 8.99850 4404 ft 224 kts 170°
2026-05-05 19:30 45.15363 9.00262 4084 ft 223 kts 170°
2026-05-05 19:30 45.13841 9.00669 4005 ft 223 kts 170°
2026-05-05 19:30 45.12307 9.01079 4000 ft 225 kts 170°
2026-05-05 19:30 45.10757 9.01367 3995 ft 224 kts 185°
2026-05-05 19:31 45.09317 9.00623 4002 ft 224 kts 218°
2026-05-05 19:31 45.08406 8.98854 4008 ft 227 kts 251°
2026-05-05 19:31 45.08334 8.96626 4009 ft 232 kts 283°
2026-05-05 19:31 45.09142 8.94651 4010 ft 237 kts 315°
2026-05-05 19:32 45.10472 8.93256 4007 ft 240 kts 334°
2026-05-05 19:32 45.12052 8.92473 4010 ft 242 kts 341°
2026-05-05 19:32 45.13662 8.91763 4009 ft 242 kts 342°
2026-05-05 19:32 45.15271 8.91061 4008 ft 242 kts 342°
2026-05-05 19:33 45.16861 8.90369 4008 ft 242 kts 342°
2026-05-05 19:33 45.18472 8.89668 4008 ft 242 kts 341°
2026-05-05 19:33 45.20080 8.88966 4007 ft 242 kts 342°
2026-05-05 19:33 45.21689 8.88263 4011 ft 242 kts 342°
2026-05-05 19:34 45.23293 8.87559 4006 ft 241 kts 342°
2026-05-05 19:34 45.24889 8.86859 4006 ft 240 kts 342°
2026-05-05 19:34 45.26481 8.86163 4026 ft 239 kts 342°
2026-05-05 19:35 45.29661 8.84772 4029 ft 239 kts 342°
2026-05-05 19:35 45.31257 8.84076 4030 ft 240 kts 342°
2026-05-05 19:35 45.32849 8.83380 4031 ft 239 kts 342°
2026-05-05 19:35 45.34439 8.82683 4032 ft 239 kts 342°
2026-05-05 19:36 45.36028 8.81986 4032 ft 239 kts 342°
2026-05-05 19:36 45.37619 8.81286 4033 ft 239 kts 342°
2026-05-05 19:36 45.39208 8.80588 4032 ft 237 kts 342°
2026-05-05 19:36 45.40730 8.79914 4027 ft 221 kts 340°
2026-05-05 19:37 45.42136 8.79226 4031 ft 206 kts 343°
2026-05-05 19:37 45.43469 8.78757 4047 ft 191 kts 347°
2026-05-05 19:37 45.44754 8.78383 4004 ft 187 kts 349°
2026-05-05 19:37 45.46028 8.78029 3828 ft 186 kts 349°
2026-05-05 19:38 45.47293 8.77681 3603 ft 185 kts 349°
2026-05-05 19:38 45.48551 8.77336 3366 ft 184 kts 349°
2026-05-05 19:38 45.49799 8.76992 3123 ft 182 kts 350°
2026-05-05 19:38 45.51045 8.76650 2874 ft 182 kts 350°
2026-05-05 19:39 45.52282 8.76310 2636 ft 181 kts 351°
2026-05-05 19:39 45.53505 8.75973 2403 ft 174 kts 351°
2026-05-05 19:39 45.54637 8.75661 2175 ft 159 kts 351°
2026-05-05 19:39 45.55690 8.75371 1962 ft 151 kts 351°
2026-05-05 19:40 45.56707 8.75091 1760 ft 148 kts 351°
2026-05-05 19:40 45.57706 8.74816 1543 ft 145 kts 350°
2026-05-05 19:40 45.58686 8.74546 1339 ft 142 kts 350°
2026-05-05 19:40 45.59648 8.74281 1143 ft 140 kts 349°
2026-05-05 19:41 45.60599 8.74015 995 ft 139 kts 349°
2026-05-05 19:41 45.61541 8.73754 821 ft 138 kts 349°
2026-05-05 19:41 45.62439 8.73510 746 ft 113 kts 349°
2026-05-05 19:41 45.62969 8.73361 743 ft 48 kts 347°
2026-05-05 19:42 45.63215 8.73160 749 ft 33 kts 314°
2026-05-05 19:42 45.63331 8.72921 751 ft 27 kts 303°
2026-05-05 19:42 45.63396 8.72751 747 ft 17 kts 288°
2026-05-05 19:42 45.63399 8.72578 750 ft 18 kts 258°
2026-05-05 19:43 45.63373 8.72389 746 ft 21 kts 259°
2026-05-05 19:43 45.63349 8.72213 747 ft 14 kts 257°
2026-05-05 19:43 45.63341 8.72154 746 ft 0 kts 259°
2026-05-05 19:44 45.63340 8.72147 747 ft 4 kts 259°
2026-05-05 19:44 45.63333 8.72094 746 ft 4 kts 258°
2026-05-05 19:44 45.63327 8.72049 748 ft 8 kts 258°
2026-05-05 19:44 45.63304 8.71980 748 ft 8 kts 218°
2026-05-05 19:45 45.63209 8.71986 749 ft 17 kts 168°
2026-05-05 19:45 45.63098 8.72020 750 ft 15 kts 168°
2026-05-05 19:45 45.63001 8.72047 748 ft 13 kts 170°
2026-05-05 19:45 45.62891 8.72076 750 ft 20 kts 168°
2026-05-05 19:46 45.62770 8.72109 751 ft 13 kts 171°
2026-05-05 19:46 45.62693 8.72093 748 ft 13 kts 220°
2026-05-05 19:46 45.62666 8.71967 750 ft 12 kts 258°
2026-05-05 19:46 45.62643 8.71847 753 ft 8 kts 239°
2026-05-05 19:47 45.62640 8.71841 750 ft 0 kts 233°
2026-05-05 19:47 45.62633 8.71834 751 ft 4 kts 213°
2026-05-05 19:47 45.62612 8.71834 753 ft 4 kts 171°
2026-05-05 19:48 45.62592 8.71862 751 ft 4 kts 111°
2026-05-05 19:48 45.62597 8.71911 751 ft 6 kts 75°
2026-05-05 19:48 45.62604 8.71956 751 ft 0 kts 78°